Location: Geçitköy
(36.7327°N, 29.8010°E)
Time: 19:26:35
(UTC+00:00)

Meteor 1-23 Rocket - Pass Details

Date: 12 January 2026
Orbit: 840 x 883 km, 81.3° (Epoch: 11 February)

Event Time Altitude Azimuth Distance (km) Brightness Sun altitude
Rises 15:57:51 0° 180° (S) 3,445 7.6 -10.5°
Reaches altitude 10° 16:00:18 10° 178° (S) 2,506 6.9 -11.0°
Maximum altitude 16:05:57 70° 96° (E) 917 4.2 -12.1°
Drops below altitude 10° 16:11:34 10° 14° (NNE) 2,493 6.4 -13.2°
Sets 16:14:00 0° 12° (NNE) 3,427 7.1 -13.6°
